Location: Newark
(12.6500°N, 8.0000°W)
Time: 06:54:21
(UTC+00:00)

OTV 5 (USA 277) - Visible Passes

Search period start: 19 October 2019 00:00
Search period end: 29 October 2019 00:00
Orbit: 310 x 324 km, 54.5° (Epoch: 17 October)

Date Brightness Start Highest point End Pass type
(mag) Time Alt. Az. Time Alt. Az. Time Alt. Az.
23 Oct ? 05:51:34 10° NNW 05:54:06 35° NE 05:56:37 10° SE visible
23 Oct ? 18:51:26 10° S 18:53:55 33° ESE 18:55:06 22° ENE visible
24 Oct ? 19:05:52 10° SW 19:08:23 36° NW 19:10:14 15° N visible
25 Oct ? 04:49:03 17° ENE 04:49:03 17° ENE 04:50:49 10° E visible
26 Oct ? 05:04:15 41° SE 05:04:15 41° SE 05:06:09 10° SSE visible
27 Oct ? 05:19:25 12° SSW 05:19:25 12° SSW 05:19:44 10° SSW visible
